Regional Weather Roundup
Issued by NWS Wakefield, VA

Home | Current Version | Previous Version | Text Only | Print | Product List | Glossary On
Versions: 1 2 3 4 5 6 7 8 9 10 11 12 13 14 15 16 17 18 19 20 21 22 23 24 25 26 27 28
000
ASUS41 KAKQ 250210
RWRAKQ

REGIONAL WEATHER ROUNDUP
NATIONAL WEATHER SERVICE WAKEFIELD VA
1000 PM EDT THU APR 24 2014

Note: "fair" indicates few or no clouds below 12,000 feet with no
significant weather and/or obstructions to visibility. * = Denotes
station may not report precipitation (e.g., rain,snow,etc.),
thunder or fog.

VAZ042-051-052>054-056-250300-
NORTHERN VIRGINIA

CITY           SKY/WX    TMP DP  RH WIND       PRES   REMARKS
WASH NATIONAL  MOCLDY    57  33  40 CALM      30.04R
DULLES         MOCLDY    47  31  53 SE3       30.03R
FORT BELVOIR   PTCLDY    48  31  50 CALM      30.04R
QUANTICO       PTCLDY    53  36  52 NW6       30.04R
FREDERICKSBRG* PTCLDY    53  30  41 CALM      30.03R
STAFFORD*      MOCLDY    50  33  51 CALM      30.07R
WARRENTON      PTCLDY    49  38  66 CALM      30.02S
CULPEPER*      MOCLDY    50  34  53 CALM      30.04R
MANASSAS*      PTCLDY    48  37  66 CALM      30.03S
LEESBURG*      PTCLDY    50  36  57 CALM      30.03S
WINCHESTER     CLOUDY    50  28  43 CALM      30.02S
$$

VAZ048-049-060>072-079>083-250300-
CENTRAL AND SOUTH CENTRAL VIRGINIA...AND NORTH CENTRAL NORTH CAROLINA

CITY           SKY/WX    TMP DP  RH WIND       PRES   REMARKS
RICHMOND       MOCLDY    54  30  40 CALM      30.03R
CHESTERFIELD*  CLEAR     54  28  37 CALM      30.04S
HANOVER        PTCLDY    49  34  56 CALM      30.04R
TAPPAHANNOCK*  PTCLDY    49  29  45 CALM      30.04S
CHARLOTTSVILLE PTCLDY    54  27  35 N3        30.01R
ORANGE*        PTCLDY    45  37  76 CALM      30.03S
LOUISA*        PTCLDY    52  30  43 SE3       30.01S
FARMVILLE*     MOCLDY    57  28  33 CALM      29.99F
SOUTH HILL*    PTCLDY    52  43  71 CALM      30.08S
ROANOKE RAPIDS PTCLDY    52  43  71 CALM      30.03F
RALEIGH        MOCLDY    60  38  43 SE3       30.02S
$$

VAZ088>098-250300-
SOUTHEAST VIRGINIA

CITY           SKY/WX    TMP DP  RH WIND       PRES   REMARKS
NORFOLK        CLEAR     52  36  54 S3        30.06R
VIRGINIA BEACH PTCLDY    53  36  52 VRB3      30.06R
NORFOLK NAVAL  MOCLDY    55  35  47 SE6       30.07R
WEST POINT*    PTCLDY    53  34  48 E3        30.06R
NEWPORT NEWS   CLEAR     52  39  61 CALM      30.06R
LANGLEY AFB    CLEAR     55  36  50 SE3       30.06R
FORT EUSTIS    PTCLDY    54  38  56 SE5       30.03R
WILLIAMSBURG*  CLEAR     54  43  66 SE3       30.05S
FRANKLIN*      CLEAR     50  43  76 E5        30.05R
WAKEFIELD      CLEAR     49  37  63 CALM      30.05R
$$

VAZ020-022-025-037-045-250300-
WESTERN AND SOUTHWEST VIRGINIA

CITY           SKY/WX    TMP DP  RH WIND       PRES   REMARKS
STAUNTON*      PTCLDY    48  35  60 CALM      30.01F
HOT SPRINGS VA MOCLDY    52  28  40 S8        30.06F
LYNCHBURG      MOCLDY    54  34  46 CALM      30.01S
DANVILLE       MOCLDY    61  38  42 SE3       30.00S
MARTINSVILLE   MOCLDY    52  43  70 CALM      30.01S
ROANOKE        MOCLDY    61  33  35 E10       30.00S
BLACKSBURG     MOCLDY    59  41  51 CALM      30.02S
DUBLIN*        MOCLDY    55  38  53 CALM      30.00S
MARION*        PTCLDY    58  34  41 N5        30.00S
HILLSVILLE*    PTCLDY    57  30  35 S9        30.03S
RICHLANDS*     PTCLDY    64  31  28 SE6       29.94R
WISE*          MOCLDY    64  21  19 S6        29.95R
ABINGDON*      PTCLDY    62  32  32 CALM      29.94R
$$

MDZ021>025-VAZ099-100-250300-
SOUTHERN MARYLAND AND THE DELMARVA PENINSULA

CITY           SKY/WX    TMP DP  RH WIND       PRES   REMARKS
PATUXENT RIVER PTCLDY    42  35  76 CALM      30.04R
BAY BRIDGE APT CLEAR     50  34  53 CALM      30.04R
LEONARDTOWN    CLEAR     48  32  53 CALM      30.06R
DOVER          CLEAR     50  29  44 SW2       29.99S
GEORGETOWN     CLEAR     48  29  47 CALM      30.04R
EASTON         NOT AVBL
CAMBRIDGE      CLEAR     46  34  61 CALM      30.04R
SALISBURY      CLEAR     48  30  49 SW3       30.05R
OCEAN CITY     CLEAR     42  32  67 W5        30.04R
WALLOPS ISLAND PTCLDY    50  35  56 NW5       30.05R
ACCOMACK*      PTCLDY    45  32  61 SW3       30.05R
$$

NCZ012>017-030>032-250300-
EASTERN NORTH CAROLINA

CITY           SKY/WX    TMP DP  RH WIND       PRES   REMARKS
ELIZABETH CITY CLEAR     54  46  74 SE8       30.07R
AHOSKIE*       CLEAR     49  42  75 CALM      30.05S
EDENTON*       CLEAR     51  43  72 CALM      30.05S
CURRITUCK*     CLEAR     50  37  61 SE3       30.07S
KILL DEVIL HLS CLEAR     49  40  71 E3        30.06R
MANTEO         CLEAR     50  44  80 SE3       30.07R
CAPE HATTERAS  CLEAR     59  40  49 SW6       30.07R
GOLDSBORO      CLEAR     58  43  56 SE6       30.02R
WASHINGTON     CLEAR     57  45  65 CALM      30.06R
GREENVILLE     CLEAR     52  45  76 CALM      30.06S
NEW BERN       CLEAR     54  45  71 CALM      30.07S
WILMINGTON     PTCLDY    59  49  69 CALM      30.05S
$$

VAZ048-250300-
ELSEWHERE

CITY           SKY/WX    TMP DP  RH WIND       PRES   REMARKS
HARRISBURG PA  PTCLDY    53  30  41 CALM      30.01R
BALTIMORE      PTCLDY    50  26  39 CALM      30.03R
ANNAPOLIS      CLEAR     52  33  48 CALM      30.03R
ANDREWS AFB    PTCLDY    49  28  42 CALM      30.03S
WILMINGTON DE  CLEAR     54  18  24 W5        30.03R
PHILADELPHIA   PTCLDY    57  10  15 NW7       30.03R
WILDWOOD NJ*   CLEAR     54  30  40 W7        30.03S
ATLANTIC CITY  CLEAR     46  22  38 NW7       30.01R
HENDERSON NC   PTCLDY    59  33  37 SE5       30.02S
GREENSBORO     PTCLDY    60  38  43 S3        29.98F
ROCKY MOUNT    CLEAR     51  44  77 CALM      30.03S
FAYETTEVILLE   CLEAR     62  45  53 S8        30.02R
CHARLOTTE      PTCLDY    63  44  50 SE7       29.98S
$$

VAZ100-250300-
MARINE

STATION/POSITION TIME  TEMP    WIND        PRES    WAVE   SWELL
                       AIR SEA DIR/SP/G            HT/PER HT/PER
                 (UTC) (F)     (DEG/KT/KT) (MB)    (FT/S) (FT/S)
44066 TX TWR #4  0200   48 45  300/ 12/ 14 1014.0R   3/ 5   2/ 9
CAPE MAY NJ      0200   54 58  300/  8/ 10 1016.4R
LEWES DE         0200   55 51  260/  7/  8 1016.2R
15NM E FENWICK I 0200   50 47              1017.0R   1/ 3
OCEAN-CITY-INLET 0200   53 49  320/  4/  5 1016.7S
WACHAPREAGUE VA  0200   50 57  300/  1/  2 1017.3S
THOMAS POINT MD  0200   55 54  200/  7/  7 1017.6R
GOOSES REEF MD   0200   54     220/  4/  6   N/A
COVE POINT MD    0200   55     200/  5/  5 1017.1R
SOLOMONS ISLAND  0200      56                N/A
BISHOPS HEAD MD  0200   55 58   CALM  /  1 1017.1S
PINEY POINT MD   0200          130/  4/  5   N/A
POTOMAC MD       0200   55     190/  2/  4 1016.7S
CAMBRIDGE MD     0200   53 58  200/  4/  5 1016.8R
LEWISETTA VA     0200   55 57  190/  3/  3 1017.1R
RAPPAHANNOCK LGT 0200          140/  4/  4 1018.0R
STINGRAY PT      0200   55     150/  4/  4 1017.5F
YORK RVR RNG VA  0200   56     130/  6/  7 1016.8S
YORKTOWN VA      0200   56 55  140/  3/  5 1017.3R
JAMESTOWN VA     0200   57     100/  4/  6   N/A
DOMINION TERM VA 0200   57     140/  9/ 10 1017.5R
KIPTOPEKE VA     0200      57  150/  5/  5   N/A
CHES BAY BRIDGE  0200   55 53  130/  6/  7 1017.7R
CAPE HENRY VA    0200   53     160/  6/  7   N/A
CHESAPEAKE LGHT  0100   54     190/  6/  6 1018.3R
WILLOUBY STN VA  0200   56     150/  8/  9 1016.8R
S CRANEY ISL VA  0200          120/  1/  5 1017.7R
CAPE HENRY BUOY  0200      49                N/A     2/ 6
1ST LANDING BUOY 0200      49                N/A     1/13   2/13
64NM E OF VA BCH 0200   50 49  240/  6/  6 1018.0R   3/ 7   3/ 7
DUCK PIER NC     0200   52 53  130/  8/  9 1017.4R
44100 DUCK FRF   0200      49                N/A     3/ 8
44056 DUCK FRF   0200      53                N/A     2/ 7
OREGON INLET NC  0200   49 57  120/  4/  5 1018.2R
HATTERAS NC      0200   60 63  160/  4/  7 1018.4S
CAPE LOOKOUT NC  0100   60     130/  5/  6 1017.8R
FRYING PAN SHLS  0200   69 68  160/ 10/ 12 1016.7R   4/ 9   3/ 9
$$



USA.gov is the U.S. government's official web portal to all federal, state and local government web resources and services.